Overview Statistics Trail Chart Weather Telemetry Raw packets
 

This is the latest recevied weather packets stored in our database for station/object KO4LCK. If no packets are shown the sender has not sent any weather packets the latest 10 day(s).

<< 23 24 25 26 27 28 29 >>
Time Temp. Humidity Pressure Rain* Wind** Luminosity Snow
1788488814 26.67° C 80% 1017.7 hPa 0 mm - 0 W/m² -
1788488512 27.22° C 80% 1017.7 hPa 0 mm - 0 W/m² -
1788488208 27.22° C 79% 1017.7 hPa 0 mm - 0 W/m² -
1788487902 27.22° C 79% 1017.6 hPa 0 mm - 0 W/m² -
1788487599 27.22° C 78% 1017.5 hPa 0 mm - 0 W/m² -
1788487293 27.78° C 78% 1017.5 hPa 0 mm - 0 W/m² -
1788486992 27.78° C 77% 1017.5 hPa 0 mm - 0 W/m² -
1788486691 28.33° C 76% 1017.4 hPa 0 mm - 0 W/m² -
1788486390 28.89° C 74% 1017.1 hPa 0 mm - 0 W/m² -
1788486086 29.44° C 72% 1017.2 hPa 0 mm - 0 W/m² -
1788485783 28.89° C 69% 1017.3 hPa 0 mm - 0 W/m² -
1788485479 28.89° C 70% 1017.2 hPa 0 mm - 0 W/m² -
1788485174 27.78° C 72% 1017.2 hPa 0 mm - 0 W/m² -
1788484873 27.78° C 75% 1017.1 hPa 0 mm - 0 W/m² -
1788484572 27.78° C 75% 1016.9 hPa 0 mm - 0 W/m² -
1788484268 28.33° C 75% 1017 hPa 0 mm - 0 W/m² -
1788483964 28.33° C 75% 1016.7 hPa 0 mm - 0 W/m² -
1788483660 28.33° C 74% 1016.7 hPa 0 mm - 0 W/m² -
1788483360 28.89° C 74% 1016.7 hPa 0 mm - 0 W/m² -
1788483055 28.89° C 73% 1016.5 hPa 0 mm - 0 W/m² -
1788482751 29.44° C 73% 1016.5 hPa 0 mm - 0 W/m² -
1788482445 29.44° C 72% 1016.5 hPa 0 mm - 0 W/m² -
1788482142 30° C 69% 1016.5 hPa 0 mm - 0 W/m² -
1788481837 30° C 69% 1016.4 hPa 0 mm - 0 W/m² -
1788481533 30.56° C 67% 1016.4 hPa 0 mm - 0 W/m² -

* Rain latest hour (hover to see other rain measurements)
** Current wind speed in m/s (hover to see current wind gust speed)